User: anonymous   Login
Location: Unspecified
(0.0000°N, 0.0000°E)
Time: 02:13:54
(UTC+02:00)
Language:

H-2A R/B - Orbit

View from above orbital plane
View from above orbital plane
View from above satellite
View from above satellite

Ground track
Ground track

The orbit data is extracted from the following two-line orbital elements,

1 28932U 06002B   15238.87532544 +.00000792 +00000-0 +82399-4 0  9992
2 28932 098.2427 123.8460 0091242 313.6793 099.1401 14.90133002519420
Epoch (UTC): 26 August 2015 21:00:28
Eccentricity: 0.0091242
inclination: 98.2427°
perigee height: 534 km
apogee height: 661 km
right ascension of ascending node: 123.8460°
argument of perigee: 313.6793°
revolutions per day: 14.90133002
mean anomaly at epoch: 99.1401°
orbit number at epoch: 51942

The dashed part of the orbit path shows where the satellite is in the earth's shadow,  

DLR